When you browse on this site, cookies collect data to enhance your experience and personalize the content and advertising you see.
Visit our Privacy Policy to learn more. By continuing to use the site, you agree to this use of cookies and data.
  • In Hungary
  • List of Countries
  • For 7 days
  • Water Temperature
  • Satellite Maps
  • Weather Map
  • News
  • Weather Widgets
  • user-avatar
    Login

    Hourly Weather Goa

    Today, 20 July, Saturday

    Time Temperature Precipitation Wind Pressure Humidity
    00:00 +29°C° 1.8 mm 5 mps 748 mmHg 83%
    01:00 +29°C° 1.8 mm 5 mps 747 mmHg 83%
    02:00 +29°C° 1.8 mm 5 mps 747 mmHg 83%
    03:00 +29°C° 1.5 mm 5 mps 747 mmHg 83%
    04:00 +28°C° 1.5 mm 5 mps 747 mmHg 83%
    05:00 +28°C° 0 mm 3 mps 746 mmHg 87%
    06:00 +28°C° 1.1 mm 3 mps 746 mmHg 86%
    07:00 +28°C° 1.1 mm 2 mps 746 mmHg 86%
    08:00 +28°C° 1.1 mm 1 mps 747 mmHg 86%
    09:00 +28°C° 0.2 mm 1 mps 747 mmHg 86%
    10:00 +28°C° 0.2 mm 2 mps 747 mmHg 85%
    11:00 +28°C° 0.2 mm 2 mps 747 mmHg 85%
    12:00 +28°C° 0.9 mm 5 mps 746 mmHg 86%
    13:00 +28°C° 0.9 mm 7 mps 746 mmHg 87%
    14:00 +29°C° 0.9 mm 9 mps 746 mmHg 87%
    15:00 +29°C° 0.8 mm 9 mps 745 mmHg 87%
    16:00 +29°C° 0.8 mm 9 mps 745 mmHg 87%
    17:00 +29°C° 0.8 mm 9 mps 745 mmHg 87%
    18:00 +29°C° 0.4 mm 7 mps 745 mmHg 87%
    19:00 +29°C° 0.4 mm 6 mps 746 mmHg 87%
    20:00 +29°C° 0.4 mm 5 mps 746 mmHg 87%
    21:00 +29°C° 0.2 mm 4 mps 746 mmHg 86%
    22:00 +29°C° 0.2 mm 4 mps 747 mmHg 86%
    23:00 +29°C° 0.2 mm 3 mps 747 mmHg 86%

    Tomorrow, 21 July, Sunday

    Time Temperature Precipitation Wind Pressure Humidity
    00:00 +29°C° 0.6 mm 5 mps 746 mmHg 85%
    01:00 +29°C° 0.6 mm 6 mps 746 mmHg 85%
    02:00 +29°C° 0.6 mm 8 mps 746 mmHg 84%
    03:00 +29°C° 1.2 mm 8 mps 746 mmHg 85%
    04:00 +29°C° 1.2 mm 8 mps 746 mmHg 85%
    05:00 +29°C° 1.2 mm 9 mps 746 mmHg 86%
    06:00 +29°C° 1.1 mm 8 mps 746 mmHg 85%
    07:00 +29°C° 1.1 mm 8 mps 747 mmHg 85%
    08:00 +29°C° 1.1 mm 8 mps 748 mmHg 85%
    09:00 +29°C° 1.1 mm 8 mps 748 mmHg 85%
    10:00 +29°C° 1.1 mm 9 mps 748 mmHg 84%
    11:00 +29°C° 1.1 mm 9 mps 748 mmHg 84%
    12:00 +29°C° 0.8 mm 9 mps 748 mmHg 84%
    13:00 +29°C° 0.8 mm 9 mps 747 mmHg 85%
    14:00 +29°C° 0.8 mm 9 mps 747 mmHg 85%
    15:00 +29°C° 1.3 mm 9 mps 747 mmHg 85%
    16:00 +29°C° 1.3 mm 9 mps 746 mmHg 84%
    17:00 +29°C° 1.3 mm 9 mps 746 mmHg 84%
    18:00 +29°C° 1.4 mm 9 mps 747 mmHg 84%
    19:00 +29°C° 1.4 mm 9 mps 747 mmHg 84%
    20:00 +29°C° 1.4 mm 9 mps 748 mmHg 85%
    21:00 +29°C° 1.1 mm 9 mps 748 mmHg 84%
    22:00 +29°C° 1.1 mm 9 mps 748 mmHg 84%
    23:00 +29°C° 1.1 mm 8 mps 749 mmHg 84%

    Day after tomorrow, 22 July, Monday

    Time Temperature Precipitation Wind Pressure Humidity
    00:00 +29°C° 0.4 mm 8 mps 748 mmHg 84%
    01:00 +29°C° 0.4 mm 8 mps 748 mmHg 84%
    02:00 +29°C° 0.4 mm 8 mps 747 mmHg 83%
    03:00 +29°C° 0.2 mm 8 mps 747 mmHg 83%
    04:00 +29°C° 0.2 mm 8 mps 747 mmHg 83%
    05:00 +29°C° 0.2 mm 8 mps 746 mmHg 83%
    06:00 +29°C° 0.3 mm 8 mps 747 mmHg 83%
    07:00 +29°C° 0.3 mm 8 mps 747 mmHg 83%
    08:00 +29°C° 0.3 mm 8 mps 748 mmHg 84%
    09:00 +29°C° 0.6 mm 8 mps 748 mmHg 84%
    10:00 +29°C° 0.6 mm 7 mps 748 mmHg 84%
    11:00 +29°C° 0.6 mm 7 mps 748 mmHg 84%
    12:00 +29°C° 0.7 mm 8 mps 748 mmHg 83%
    13:00 +29°C° 0.7 mm 8 mps 747 mmHg 83%
    14:00 +29°C° 0.7 mm 8 mps 747 mmHg 83%
    15:00 +29°C° 1.2 mm 8 mps 746 mmHg 83%
    16:00 +29°C° 1.2 mm 9 mps 746 mmHg 83%
    17:00 +29°C° 1.2 mm 9 mps 746 mmHg 84%
    18:00 +29°C° 1.6 mm 9 mps 747 mmHg 84%
    19:00 +29°C° 1.6 mm 9 mps 747 mmHg 84%
    20:00 +29°C° 1.6 mm 9 mps 748 mmHg 84%
    21:00 +29°C° 1.5 mm 9 mps 748 mmHg 84%
    22:00 +29°C° 1.5 mm 10 mps 748 mmHg 84%
    23:00 +29°C° 1.5 mm 10 mps 748 mmHg 84%

    23 July, Tuesday

    Time Temperature Precipitation Wind Pressure Humidity
    00:00 +29°C° 0.9 mm 10 mps 747 mmHg 84%
    01:00 +29°C° 0.9 mm 10 mps 747 mmHg 84%
    02:00 +29°C° 0.9 mm 10 mps 746 mmHg 84%
    03:00 +29°C° 0.7 mm 10 mps 746 mmHg 84%
    04:00 +29°C° 0.7 mm 10 mps 746 mmHg 84%
    05:00 +29°C° 0.7 mm 10 mps 745 mmHg 84%
    06:00 +29°C° 0.9 mm 10 mps 746 mmHg 84%
    07:00 +29°C° 0.9 mm 9 mps 746 mmHg 84%
    08:00 +29°C° 0.9 mm 9 mps 747 mmHg 84%
    09:00 +29°C° 1.2 mm 9 mps 747 mmHg 84%
    10:00 +29°C° 1.2 mm 9 mps 747 mmHg 84%
    11:00 +29°C° 1.2 mm 9 mps 747 mmHg 84%
    12:00 +29°C° 0.7 mm 9 mps 746 mmHg 84%
    13:00 +29°C° 0.7 mm 10 mps 746 mmHg 84%
    14:00 +29°C° 0.7 mm 10 mps 745 mmHg 84%
    15:00 +29°C° 1 mm 10 mps 745 mmHg 84%
    16:00 +29°C° 1 mm 10 mps 745 mmHg 84%
    17:00 +29°C° 1 mm 10 mps 745 mmHg 84%
    18:00 +29°C° 1.2 mm 10 mps 746 mmHg 84%
    19:00 +29°C° 1.2 mm 10 mps 746 mmHg 84%
    20:00 +29°C° 1.2 mm 10 mps 746 mmHg 85%
    21:00 +29°C° 2.1 mm 10 mps 747 mmHg 85%
    22:00 +28°C° 2.1 mm 11 mps 747 mmHg 86%
    23:00 +28°C° 2.1 mm 11 mps 747 mmHg 87%

    24 July, Wednesday

    Time Temperature Precipitation Wind Pressure Humidity
    00:00 +28°C° 2.8 mm 11 mps 746 mmHg 87%
    01:00 +28°C° 2.8 mm 11 mps 746 mmHg 87%
    02:00 +28°C° 2.8 mm 11 mps 745 mmHg 87%
    03:00 +28°C° 1 mm 11 mps 745 mmHg 87%
    04:00 +28°C° 1 mm 11 mps 745 mmHg 86%
    05:00 +28°C° 1 mm 11 mps 745 mmHg 85%
    06:00 +28°C° 1.2 mm 10 mps 746 mmHg 85%
    07:00 +28°C° 1.2 mm 10 mps 746 mmHg 85%
    08:00 +29°C° 1.2 mm 9 mps 747 mmHg 84%
    09:00 +29°C° 1.9 mm 9 mps 747 mmHg 85%
    10:00 +29°C° 1.9 mm 9 mps 747 mmHg 85%
    11:00 +29°C° 1.9 mm 9 mps 747 mmHg 85%
    12:00 +28°C° 1.9 mm 9 mps 747 mmHg 85%
    13:00 +28°C° 1.9 mm 10 mps 746 mmHg 86%
    14:00 +28°C° 1.9 mm 10 mps 746 mmHg 86%
    15:00 +28°C° 2.3 mm 11 mps 746 mmHg 86%
    16:00 +28°C° 2.3 mm 11 mps 746 mmHg 87%
    17:00 +28°C° 2.3 mm 12 mps 746 mmHg 87%
    18:00 +28°C° 3.8 mm 12 mps 746 mmHg 88%
    19:00 +28°C° 3.8 mm 12 mps 747 mmHg 90%
    20:00 +27°C° 3.8 mm 12 mps 747 mmHg 91%
    21:00 +27°C° 4 mm 12 mps 748 mmHg 91%
    22:00 +27°C° 4 mm 12 mps 748 mmHg 91%
    23:00 +27°C° 4 mm 12 mps 748 mmHg 91%

    25 July, Thursday

    Time Temperature Precipitation Wind Pressure Humidity
    00:00 +27°C° 0.8 mm 11 mps 748 mmHg 90%
    01:00 +27°C° 0.8 mm 11 mps 747 mmHg 89%
    02:00 +27°C° 0.8 mm 10 mps 747 mmHg 88%
    03:00 +28°C° 0.1 mm 10 mps 747 mmHg 87%
    04:00 +28°C° 0.1 mm 9 mps 747 mmHg 85%
    05:00 +28°C° 0.1 mm 9 mps 747 mmHg 84%
    06:00 +28°C° 0.4 mm 9 mps 748 mmHg 84%
    07:00 +28°C° 0.4 mm 8 mps 748 mmHg 84%
    08:00 +28°C° 0.4 mm 8 mps 749 mmHg 84%
    09:00 +28°C° 0.8 mm 8 mps 749 mmHg 84%
    10:00 +29°C° 0.8 mm 8 mps 749 mmHg 84%
    11:00 +29°C° 0.8 mm 8 mps 749 mmHg 84%
    12:00 +29°C° 1.2 mm 8 mps 749 mmHg 84%
    13:00 +29°C° 1.2 mm 8 mps 748 mmHg 84%
    14:00 +28°C° 1.2 mm 8 mps 748 mmHg 85%
    15:00 +28°C° 1.1 mm 8 mps 748 mmHg 85%
    16:00 +28°C° 1.1 mm 8 mps 748 mmHg 85%
    17:00 +28°C° 1.1 mm 7 mps 748 mmHg 85%
    18:00 +28°C° 1.4 mm 7 mps 748 mmHg 85%
    19:00 +28°C° 1.4 mm 7 mps 748 mmHg 85%
    20:00 +28°C° 1.4 mm 6 mps 749 mmHg 85%
    21:00 +28°C° 2 mm 6 mps 749 mmHg 86%
    22:00 +28°C° 2 mm 6 mps 749 mmHg 86%
    23:00 +28°C° 2 mm 6 mps 750 mmHg 87%
    Show more